User: anonymous   Login
Location: Carrer del Canonge
(41.4901°N, 2.2931°E)
Time: 10:12:22
(UTC+00:00)
Language:

DELTA 2 R/B (1) - Orbit

View from above orbital plane
View from above orbital plane
View from above satellite
View from above satellite

Ground track
Ground track

The orbit data is extracted from the following two-line orbital elements,

1 27665U 03005C   20336.85614222  .00000011  00000-0  37847-4 0  9993
2 27665  39.5742 155.3993 0009468 213.3430 243.5761 14.28538524931582
Epoch (UTC): 01 December 2020 20:32:50
Eccentricity: 0.0009468
inclination: 39.5742°
perigee height: 790 km
apogee height: 803 km
right ascension of ascending node: 155.3993°
argument of perigee: 213.3430°
revolutions per day: 14.28538524
mean anomaly at epoch: 243.5761°
orbit number at epoch: 93158

The dashed part of the orbit path shows where the satellite is in the earth's shadow,  

DLR